Weather History for Russell, KS

Change the Weather History Date:

Thursday, February 14, 2013

  Actual Average Record
Temperature  
Mean Temperature 38 °F -  
Max Temperature 48 °F 41 °F 82 °F (1954)
Min Temperature 25 °F 22 °F -5 °F (2007)
Degree Days  
Heating Degree Days 27    
Moisture  
Dew Point 23 °F    
Average Humidity 60    
Maximum Humidity 85    
Minimum Humidity 40    
Precipitation  
Precipitation 0.00 in - - ()
Sea Level Pressure  
Sea Level Pressure 30.14 in    
Wind  
Wind Speed 11 mph (NW)    
Max Wind Speed 22 mph    
Max Gust Speed 30 mph    
Visibility 10 miles    
Events      
Averages and records for this station are not official NWS values.
T = Trace of Precipitation, MM = Missing Value Source: NWS Daily Summary

Daily Weather History Graph

Daily Weather History Graph

Search for Another Location

Airport:

Trip Planner

Search our weather history database for the weather conditions in past years. The results will help you decide how hot, cold, wet, or windy it might be!

Date:

Astronomy

Feb. 14, 2013 Rise Set
Actual Time 7:27 AM CST 6:12 PM CST
Civil Twilight 7:00 AM CST 6:39 PM CST
Nautical Twilight 6:28 AM CST 7:10 PM CST
Astronomical Twilight 5:57 AM CST 7:41 PM CST
Moon 9:33 AM CST (2/14) 11:12 PM CST (2/14)
Length of Visible Light 11h 39m
Length of Day
10h 44m
Waxing Crescent, 22% of the Moon is Illuminated
Feb 14
Waxing Crescent
Feb 17
First Quarter
Feb 25
Full
Mar 4
Last Quarter
Mar 11
New

Hourly Weather History & Observations

Time (CST) Temp. Windchill Dew Point Humidity Pressure Visibility Wind Dir Wind Speed Gust Speed Precip Events Conditions
12:53 AM 33.1 °F 26.9 °F 21.9 °F 64% 29.95 in 10.0 mi WSW 6.9 mph - N/A   Scattered Clouds
1:53 AM 33.1 °F 27.7 °F 24.1 °F 70% 29.96 in 10.0 mi WSW 5.8 mph - N/A   Mostly Cloudy
2:53 AM 37.0 °F 28.9 °F 26.1 °F 65% 29.98 in 10.0 mi NW 12.7 mph - N/A   Clear
3:53 AM 36.0 °F 27.1 °F 26.1 °F 67% 29.98 in 10.0 mi NW 13.8 mph - N/A   Clear
4:53 AM 32.0 °F 26.4 °F 25.0 °F 75% 30.01 in 10.0 mi West 5.8 mph - N/A   Clear
5:53 AM 30.0 °F 24.1 °F 24.1 °F 79% 30.02 in 10.0 mi West 5.8 mph - N/A   Clear
6:53 AM 28.0 °F 20.0 °F 24.1 °F 85% 30.06 in 10.0 mi West 8.1 mph - N/A   Clear
7:53 AM 28.9 °F - 25.0 °F 85% 30.09 in 10.0 mi North - - N/A   Clear
8:53 AM 35.1 °F 28.6 °F 28.9 °F 78% 30.11 in 10.0 mi WNW 8.1 mph - N/A   Clear
9:53 AM 37.9 °F 31.5 °F 28.9 °F 70% 30.13 in 10.0 mi NW 9.2 mph - N/A   Mostly Cloudy
10:53 AM 41.0 °F 33.5 °F 30.0 °F 65% 30.14 in 10.0 mi NW 13.8 mph - N/A   Overcast
11:53 AM 42.1 °F 35.7 °F 28.0 °F 58% 30.16 in 10.0 mi NNW 11.5 mph - N/A   Overcast
12:53 PM 44.1 °F 37.4 °F 23.0 °F 43% 30.15 in 10.0 mi NW 13.8 mph - N/A   Overcast
1:53 PM 45.0 °F 38.9 °F 21.9 °F 40% 30.14 in 10.0 mi NW 12.7 mph - N/A   Overcast
2:53 PM 45.0 °F - 21.9 °F 40% 30.15 in 10.0 mi North - - N/A   Overcast
3:53 PM 48.0 °F - 26.1 °F 42% 30.16 in 10.0 mi WNW 16.1 mph - N/A   Overcast
4:53 PM 45.0 °F 38.5 °F 23.0 °F 42% 30.17 in 10.0 mi NW 13.8 mph - N/A   Overcast
5:53 PM 43.0 °F 36.0 °F 23.0 °F 45% 30.20 in 10.0 mi NW 13.8 mph - N/A   Overcast
6:53 PM 39.9 °F 31.4 °F 21.9 °F 49% 30.25 in 10.0 mi North 16.1 mph - N/A   Mostly Cloudy
7:53 PM 37.9 °F 27.3 °F 17.1 °F 43% 30.28 in 10.0 mi North 21.9 mph 29.9 mph N/A   Scattered Clouds
8:53 PM 33.1 °F 23.4 °F 17.1 °F 52% 30.32 in 10.0 mi North 13.8 mph - N/A   Partly Cloudy
9:53 PM 30.9 °F 21.2 °F 17.1 °F 57% 30.34 in 10.0 mi North 12.7 mph - N/A   Clear
10:53 PM 28.0 °F 16.1 °F 16.0 °F 61% 30.35 in 10.0 mi North 16.1 mph - N/A   Clear
11:53 PM 25.0 °F 12.6 °F 16.0 °F 69% 30.37 in 10.0 mi NNW 15.0 mph - N/A   Clear